Location: Unspecified
(43.4354°N, 0.0000°E)
Time: 22:40:54
(UTC+00:00)

S-56A Canister/Altair - Pass Details

Date: 28 June 2019
Orbit: 632 x 2500 km, 38.9° (Epoch: 18 July)

Event Time Altitude Azimuth Distance (km) Brightness Sun altitude
Rises 14:16:34 0° 241° (WSW) 5,880 12.6 56.0°
Reaches altitude 10° 14:20:50 10° 238° (WSW) 4,672 12.3 55.3°
Maximum altitude 14:32:47 57° 165° (SSE) 1,885 10.3 53.3°
Drops below altitude 10° 14:40:48 10° 90° (E) 3,203 10.5 51.9°
Sets 14:43:12 0° 86° (E) 3,957 10.8 51.5°
